Location: Warszawa
(52.2500°N, 21.0000°E)
Time: 20:32:32
(UTC+02:00)

AO-91 - Pass Details

Date: 03 May 2024
Orbit: 441 x 737 km, 97.6° (Epoch: 20 May)

Event Time Altitude Azimuth Distance (km) Brightness Sun altitude
Rises 23:45:02 0° 359° (N) 2,479 ? -20.9°
Reaches altitude 10° 23:47:37 10° 337° (NNW) 1,630 ? -21.0°
Maximum altitude 23:49:45 16° 298° (WNW) 1,343 ? -21.1°
Drops below altitude 10° 23:51:57 10° 261° (W) 1,690 ? -21.1°
Enters shadow 23:52:27 - 255° (WSW) 1,835 ? -21.2°
